Theta_e
321 331 338 346 349 348 347 347 348 347 347 347 348 348 348 347 346 345 345 345 346 346 346 345 345 344 345 346 348 349 351 355 353 353 354 355 355 355 356 354 352 351 355
313 319 331 342 344 345 348 347 346 347 346 346 347 348 347 348 348 347 346 347 347 347 348 348 347 346 345 348 349 349 351 353 352 351 351 352 353 355 355 353 352 349 355
307 313 323 337 339 341 343 343 344 346 346 346 347 347 347 347 347 347 348 349 348 348 348 348 347 346 347 347 348 349 349 351 352 350 349 348 348 354 354 353 352 353 354
305 308 321 333 332 335 336 337 338 341 343 343 344 345 346 346 347 347 346 347 347 347 347 348 348 348 348 348 348 349 349 349 351 348 346 346 347 352 352 353 353 353 354
299 303 316 325 324 326 327 328 329 332 334 337 339 339 339 340 342 344 345 345 345 346 346 347 346 349 348 349 349 349 348 348 348 346 344 344 345 350 353 354 353 353 351
297 299 310 318 319 320 321 322 322 325 327 329 331 332 333 336 337 338 340 342 343 344 345 346 346 347 347 348 349 349 348 347 347 344 342 344 345 350 353 355 353 350 348
294 297 301 313 314 315 317 318 318 319 321 323 322 323 327 330 331 333 334 335 338 341 343 344 345 346 345 347 348 348 347 344 342 341 341 341 344 351 351 354 354 352 351
293 296 298 305 309 310 312 313 313 314 315 316 316 318 319 318 322 325 325 327 332 335 338 341 343 344 344 345 345 346 343 340 339 340 341 341 343 350 351 353 353 353 351
293 294 294 295 301 305 307 308 309 309 310 311 310 311 312 314 318 313 314 317 320 322 325 330 337 340 342 343 343 342 339 337 337 340 340 341 342 349 348 353 353 353 352
292 292 292 292 295 296 297 305 305 306 306 307 307 307 306 309 309 308 308 311 314 316 316 321 327 333 336 340 340 338 335 334 335 337 339 340 342 347 349 351 351 352 353
291 291 291 291 291 293 295 297 299 302 302 303 304 305 303 303 303 301 305 308 310 311 312 318 321 320 328 331 334 333 332 333 333 335 338 337 342 347 348 350 350 351 352
286 288 290 289 290 291 295 292 292 294 294 295 297 299 301 300 302 300 301 304 307 307 309 315 313 311 309 313 326 330 331 330 332 334 336 337 342 346 347 348 349 349 351
284 286 288 288 288 289 290 290 290 290 291 292 293 296 298 298 297 297 296 296 301 303 304 306 306 305 306 306 307 314 328 328 330 331 333 334 341 345 347 348 347 348 350
285 285 286 287 287 288 289 288 288 289 290 289 291 294 295 294 294 294 293 294 297 299 300 302 303 303 303 304 304 305 311 326 328 330 331 329 335 342 345 347 347 349 349
285 285 285 286 286 287 288 287 288 288 288 289 290 292 293 292 292 291 291 292 294 298 298 298 300 300 300 302 302 303 305 313 325 327 330 323 328 337 343 347 347 348 350
285 285 285 287 287 287 287 286 287 287 288 289 289 290 292 292 289 289 289 290 292 294 296 297 298 299 299 299 301 302 302 305 317 325 328 329 326 331 338 344 346 347 350
284 285 285 287 287 286 286 287 287 287 288 288 288 289 290 289 288 286 287 289 290 292 293 296 296 297 296 298 298 299 301 303 306 316 325 326 327 324 329 338 342 344 348
283 284 285 288 286 286 286 286 286 287 286 286 286 287 287 288 287 285 285 286 289 287 288 291 295 296 295 296 296 297 298 301 302 305 321 324 325 326 326 330 335 340 343
283 283 284 285 285 285 285 285 285 285 285 284 284 285 285 285 286 284 284 285 285 285 286 288 290 293 294 295 296 297 298 298 300 303 304 320 323 324 326 327 327 329 336
282 283 283 284 284 284 284 284 283 283 283 283 282 283 284 284 284 283 283 283 283 283 283 284 285 287 291 295 296 296 297 298 298 299 303 310 321 323 324 326 327 326 324
282 282 282 283 283 283 282 280 280 280 281 280 281 283 283 283 283 282 282 281 281 281 281 283 284 285 287 292 292 293 294 296 296 299 303 305 314 321 322 324 326 328 329
281 282 282 282 282 283 282 281 281 280 280 280 281 280 281 282 281 281 281 280 280 280 281 282 284 286 288 291 289 290 288 290 294 297 300 305 312 320 320 323 325 327 328
280 281 282 282 282 282 281 281 280 280 278 277 277 278 279 281 281 280 280 279 279 280 280 281 280 280 281 286 290 291 286 285 289 296 300 306 313 318 320 321 323 325 327
280 281 281 281 281 282 281 279 277 276 275 276 277 277 278 279 279 280 280 279 279 280 278 278 280 280 281 280 286 291 294 292 287 285 294 297 301 302 313 319 321 323 325
281 280 280 280 280 280 279 278 276 276 276 276 276 276 276 277 279 279 279 278 278 278 277 277 277 278 281 281 283 285 288 291 292 289 286 290 298 302 301 314 320 321 324
280 280 279 279 278 279 278 277 275 274 274 274 274 274 275 276 277 278 278 277 277 277 276 276 277 279 278 278 278 281 285 287 288 289 288 290 292 295 301 302 314 320 322
Wind_Speed
10 14 20 19 14 11 8 7 6 5 5 4 4 4 5 5 5 6 8 10 11 10 10 11 11 10 11 11 10 8 8 8 8 7 7 7 8 10 10 9 9 7 11
8 10 18 17 16 17 15 12 9 6 6 7 7 9 9 8 7 7 7 8 9 10 12 12 12 13 12 11 10 10 8 8 8 8 8 6 7 10 12 11 11 8 12
8 10 11 15 17 17 19 19 19 17 12 11 11 11 12 12 10 11 11 9 8 10 11 12 12 12 11 11 11 11 10 9 9 9 7 4 5 9 12 11 12 14 14
7 8 8 16 18 19 19 20 20 19 17 17 17 15 15 15 15 14 15 14 12 13 13 14 14 13 11 10 10 13 11 10 9 9 5 4 5 9 12 12 16 15 15
6 7 9 16 19 20 21 21 21 21 21 20 19 17 18 19 19 17 15 14 15 16 16 15 16 14 13 12 10 11 11 9 9 7 5 5 5 8 15 15 16 15 14
6 7 10 17 19 21 22 22 22 22 22 22 23 22 22 20 20 20 20 19 17 16 18 18 17 15 14 14 13 11 11 9 8 6 5 6 6 11 15 13 13 15 13
7 6 7 17 19 21 21 21 22 21 21 21 21 22 21 21 22 21 22 21 22 20 19 19 19 15 15 14 13 13 12 9 6 5 6 6 7 14 16 14 14 13 16
5 6 6 12 18 20 21 21 21 21 21 21 21 22 22 23 22 23 24 25 25 24 23 22 19 17 16 15 15 13 11 9 6 6 7 7 10 16 19 17 16 16 17
6 6 6 6 9 15 19 19 20 20 20 20 21 21 20 21 21 24 24 24 24 23 24 26 25 20 17 16 15 14 10 10 7 5 7 6 11 19 21 18 18 19 18
4 4 5 5 6 6 6 17 18 19 19 18 19 20 19 18 21 22 22 23 24 25 25 23 24 24 23 20 16 12 12 12 7 7 6 7 14 21 23 21 20 20 20
4 6 5 6 6 6 6 8 11 14 17 15 13 16 10 6 8 10 18 22 23 23 24 21 22 23 24 18 16 13 14 6 6 6 6 11 15 22 24 23 21 21 21
4 4 5 6 6 6 6 6 5 6 5 5 6 6 4 5 7 11 12 19 20 21 22 20 21 21 16 10 10 11 6 7 7 8 7 14 18 23 25 24 22 22 23
2 3 6 6 6 7 6 4 3 3 3 4 6 6 5 4 4 5 5 7 6 12 7 10 9 6 9 8 8 10 11 8 7 7 9 15 20 24 27 25 25 23 24
5 4 5 7 6 6 4 4 5 4 4 4 5 5 3 3 4 6 4 6 7 6 8 6 6 8 9 9 10 11 13 12 8 7 9 15 19 25 28 27 28 26 26
6 4 5 6 6 5 5 4 3 4 4 5 5 5 4 4 4 4 5 6 7 7 7 8 7 7 8 9 9 10 12 15 15 9 9 14 18 24 28 28 29 29 28
6 6 3 5 5 4 3 3 3 3 4 4 4 5 5 4 4 7 6 6 6 8 8 9 8 8 8 8 10 10 10 12 15 15 11 11 16 21 27 30 30 31 31
4 5 5 4 5 5 4 4 4 4 4 4 4 5 5 5 5 5 4 5 5 8 12 10 10 8 8 7 10 9 9 10 11 16 14 13 14 18 25 30 31 33 31
6 6 4 3 3 3 3 3 4 4 3 4 4 4 5 6 6 5 5 5 5 7 8 9 9 10 10 9 9 8 9 10 12 13 15 13 12 13 15 27 30 33 33
8 7 5 3 3 2 1 2 3 3 3 4 4 4 5 5 5 4 4 5 7 6 6 8 9 10 10 10 10 11 10 10 12 10 13 16 17 15 13 17 27 27 32
7 7 5 3 3 2 2 3 3 3 3 4 4 3 5 4 5 6 6 7 8 7 6 7 10 10 13 12 11 13 12 12 12 13 15 12 16 17 17 17 12 16 22
6 7 5 2 2 1 1 2 3 4 4 3 3 5 6 5 6 6 5 8 8 8 9 10 10 12 10 10 12 13 13 14 15 15 12 13 15 18 17 16 13 11 13
8 7 5 3 3 3 2 3 3 3 4 4 3 5 5 5 6 7 5 7 8 8 9 9 10 10 12 8 11 12 13 11 9 14 14 14 17 14 16 19 19 18 14
8 8 7 3 3 3 3 2 2 3 3 2 3 4 3 5 6 7 6 7 9 8 8 7 10 13 13 10 12 11 7 8 7 3 7 6 12 11 15 16 19 18 17
8 7 6 3 3 3 2 2 2 2 3 3 4 4 6 6 7 6 6 7 10 7 8 8 9 10 11 14 11 12 17 14 11 13 6 6 4 4 12 15 15 17 18
8 8 6 2 3 3 3 2 2 5 4 4 4 6 7 6 6 7 7 8 9 7 9 11 12 12 10 11 12 11 15 14 14 14 16 13 10 8 4 10 13 14 17
7 7 6 3 3 3 3 3 4 6 7 6 7 7 7 7 6 7 9 8 9 10 10 11 12 11 12 13 13 15 13 12 11 12 14 15 13 15 11 7 15 14 14
Wind_Direction
343 339 359 5 13 13 355 338 325 314 301 306 307 306 304 305 306 312 317 319 321 320 316 312 309 307 304 301 298 307 322 288 253 240 236 246 243 235 217 192 197 186 177
308 344 360 7 21 23 28 18 338 292 287 303 309 312 304 300 299 291 283 279 289 301 310 314 312 308 303 300 300 299 297 305 258 239 230 224 241 231 226 192 193 192 180
350 342 346 22 29 29 31 35 33 34 21 355 331 321 313 307 303 297 293 289 293 293 296 302 305 302 301 301 299 295 291 302 248 245 225 215 225 241 229 192 194 193 187
345 338 351 34 39 40 41 39 36 30 28 23 17 8 353 336 324 311 303 305 305 301 302 301 302 301 293 289 289 292 294 300 248 241 224 221 217 236 235 207 197 200 187
356 356 7 41 42 42 41 39 37 35 29 25 20 15 10 6 358 344 331 319 312 308 303 300 300 300 300 290 275 278 288 289 268 239 230 227 226 224 224 213 203 198 187
9 5 13 38 42 40 39 38 35 33 31 29 26 20 13 9 9 2 355 342 322 308 303 299 297 297 294 298 301 287 282 279 267 242 226 232 227 226 222 215 211 194 182
21 9 14 42 42 42 40 38 36 34 33 32 26 23 20 17 13 8 6 359 349 333 312 302 299 296 292 289 287 286 274 269 255 237 229 217 225 236 229 219 206 199 191
36 13 23 33 42 43 41 39 38 36 34 30 25 23 22 19 18 14 9 8 2 354 343 326 302 298 292 286 285 280 276 268 260 227 227 228 224 228 228 219 209 203 201
34 35 21 21 34 41 42 38 35 35 35 34 30 27 21 18 21 11 7 5 2 357 354 351 339 307 290 287 283 279 265 265 263 249 225 228 229 233 232 228 215 205 203
51 60 39 33 34 32 31 30 28 28 27 28 26 25 24 20 16 10 4 0 358 356 353 349 350 341 328 294 278 266 265 260 259 251 242 234 224 237 233 226 220 213 204
42 37 35 33 37 30 53 28 22 20 19 17 16 16 11 13 11 10 359 355 355 353 350 349 350 350 342 326 295 275 263 268 244 250 242 235 229 237 238 231 225 216 207
40 22 28 33 28 29 33 23 18 13 357 355 355 353 5 3 2 2 358 355 348 346 345 350 346 347 351 345 327 297 280 262 248 255 247 236 229 239 242 231 225 221 208
121 58 36 32 31 34 22 13 10 3 351 347 352 355 352 6 0 358 350 348 337 336 333 342 340 340 340 337 326 327 297 275 265 257 248 239 235 236 243 236 230 221 214
98 61 39 33 30 30 28 19 5 356 360 346 338 339 351 2 9 354 343 338 333 328 321 326 323 319 326 324 319 315 318 288 273 264 253 238 238 239 240 235 231 223 217
113 89 47 41 33 19 28 10 1 354 355 340 335 342 7 8 355 347 342 335 330 323 318 316 309 304 310 308 309 310 304 307 279 265 262 239 239 238 241 237 228 229 217
136 104 89 67 41 34 37 9 353 357 335 336 324 327 358 7 357 359 337 330 329 328 315 306 300 295 293 296 296 296 292 296 303 270 260 255 237 240 239 241 230 226 221
127 109 88 87 38 26 12 357 354 347 351 332 315 328 16 4 14 347 331 326 321 332 320 307 305 291 289 282 280 286 289 282 288 298 259 257 255 235 237 241 237 226 222
141 134 112 94 58 8 345 334 327 326 325 314 315 309 357 2 8 353 336 318 323 321 305 306 298 296 298 293 286 281 284 279 276 277 279 251 251 249 234 237 240 230 221
161 148 146 169 184 227 265 270 275 287 309 301 303 305 351 1 358 342 326 319 318 308 315 309 305 297 288 287 283 283 277 275 277 275 272 272 244 247 245 235 232 234 225
163 157 162 185 210 277 275 289 267 260 263 268 287 297 341 341 345 338 329 329 327 316 311 310 300 293 287 282 281 281 279 274 270 261 256 259 258 240 242 241 229 229 230
172 166 165 161 237 201 243 329 305 275 284 254 289 324 337 332 337 325 318 330 318 314 308 300 292 289 285 293 290 285 282 274 269 257 248 245 252 241 234 239 235 224 224
176 175 175 198 228 215 181 228 238 262 274 271 296 315 314 313 309 312 312 304 305 293 286 285 284 302 291 289 274 284 288 290 274 247 241 233 236 237 233 231 229 227 221
183 186 188 205 252 234 220 251 266 267 279 256 258 275 276 288 281 285 279 294 295 277 279 304 299 289 291 286 288 266 277 256 344 295 292 260 242 224 230 225 226 227 219
195 179 185 201 249 238 236 254 261 237 258 246 290 279 291 280 278 267 264 273 278 271 288 295 287 285 293 285 277 273 261 267 268 291 283 311 282 298 278 224 226 219 219
172 181 185 201 272 265 254 256 282 284 251 265 269 279 287 274 262 280 274 271 280 281 289 290 281 273 262 275 277 275 288 254 251 254 274 277 281 271 271 290 220 218 216
170 170 181 206 256 280 284 300 309 284 296 307 315 310 302 298 292 274 275 282 285 282 281 284 275 273 279 271 274 272 262 273 246 242 255 266 268 278 270 299 265 216 215